sat.trackr.live / text

‹ back to catalog

TECMS

NORAD 53346 · 2022-090A

PAYLOAD ACTIVE UNKNOWN

§ Identity

Operator
Country
PRC
Launch date
2022-08-04
Launch site
TAISC
Launch vehicle
Mass (kg)
RCS (m²)

External: N2YO · Heavens-Above · Gunter

§ Orbital elements

Epoch: 2026-09-21T04:28:12.565920Z

Period
94.68 min
Inclination
97.3045°
Eccentricity
0.0001188
Mean motion
15.20958030 rev/d
Perigee alt
502.1 km
Apogee alt
503.8 km
Semi-major
6,881.1 km
B*
1.5680e-4
RAAN
329.5217°
Arg perigee
195.2669°
Mean anomaly
164.8531°
Rev number
22,940

§ Raw data

TECMS1 53346U 22090A   26264.18625655  .00003405  00000+0  15680-3 0  99962 53346  97.3045 329.5217 0001188 195.2669 164.8531 15.20958030229404

JSON: /api/v1/satellites/53346 · /tle

For live sub-satellite position, see the globe view (requires WebGL).

§ Visibility from observer

Set your observer location to see the next 7 days of passes ≥ 10°. The values pass through the URL so the page stays shareable.

No JS? Fill the form by hand. The geolocation button needs JavaScript.

§ Radio — SatNOGS DB

ModeDescriptionDownlinkUplink
LoRa LoRa 62,5 kHz SF12 CR4/5 sync 0x12 400.130 MHz
FM S-band telemetry 2.210 GHz
FM S-band telemetry 2.224 GHz

3 transmitters · refreshed weekly from db.satnogs.org